• In Sweden
  • List of Countries
  • For 7 days
  • Water Temperature
  • Satellite Maps
  • Weather Map
  • Weather Widgets
  • user-avatar
    Login

    Hourly Weather Inshinskiy

    Today, 22 July, Sunday

    Time Temperature Precipitation Wind Pressure Humidity
    00:00 +19°C° 0 mm 3 mps 737 mmHg 96%
    01:00 +19°C° 0 mm 4 mps 737 mmHg 97%
    02:00 +18°C° 0 mm 4 mps 737 mmHg 97%
    03:00 +19°C° 0 mm 4 mps 738 mmHg 97%
    04:00 +19°C° 0 mm 4 mps 738 mmHg 97%
    05:00 +19°C° 0 mm 4 mps 738 mmHg 97%
    06:00 +19°C° 0 mm 4 mps 738 mmHg 96%
    07:00 +19°C° 0 mm 4 mps 738 mmHg 95%
    08:00 +20°C° 0 mm 4 mps 738 mmHg 94%
    09:00 +20°C° 0 mm 5 mps 738 mmHg 93%
    10:00 +20°C° 0 mm 5 mps 738 mmHg 91%
    11:00 +21°C° 0 mm 5 mps 738 mmHg 90%
    12:00 +21°C° 0.1 mm 5 mps 738 mmHg 88%
    13:00 +22°C° 0.1 mm 5 mps 738 mmHg 86%
    14:00 +22°C° 0.1 mm 5 mps 738 mmHg 85%
    15:00 +22°C° 0.3 mm 5 mps 738 mmHg 85%
    16:00 +22°C° 0.3 mm 5 mps 738 mmHg 85%
    17:00 +22°C° 0.3 mm 5 mps 738 mmHg 85%
    18:00 +21°C° 0.2 mm 5 mps 738 mmHg 88%
    19:00 +20°C° 0.2 mm 5 mps 738 mmHg 90%
    20:00 +19°C° 0.2 mm 5 mps 738 mmHg 92%
    21:00 +19°C° 0.1 mm 5 mps 738 mmHg 93%
    22:00 +19°C° 0.1 mm 5 mps 738 mmHg 93%
    23:00 +19°C° 0.1 mm 5 mps 738 mmHg 93%

    Tomorrow, 23 July, Monday

    Time Temperature Precipitation Wind Pressure Humidity
    00:00 +17°C° 0 mm 5 mps 738 mmHg 93%
    01:00 +17°C° 0 mm 5 mps 738 mmHg 94%
    02:00 +17°C° 0 mm 5 mps 738 mmHg 94%
    03:00 +17°C° 0.1 mm 5 mps 738 mmHg 94%
    04:00 +17°C° 0.1 mm 5 mps 738 mmHg 94%
    05:00 +17°C° 0.1 mm 5 mps 738 mmHg 94%
    06:00 +17°C° 0.1 mm 5 mps 738 mmHg 94%
    07:00 +17°C° 0.1 mm 5 mps 738 mmHg 94%
    08:00 +17°C° 0.1 mm 5 mps 738 mmHg 93%
    09:00 +17°C° 0.1 mm 5 mps 739 mmHg 92%
    10:00 +17°C° 0.1 mm 5 mps 739 mmHg 91%
    11:00 +19°C° 0.1 mm 5 mps 739 mmHg 90%
    12:00 +19°C° 0 mm 5 mps 739 mmHg 89%
    13:00 +19°C° 0 mm 5 mps 739 mmHg 88%
    14:00 +19°C° 0 mm 5 mps 739 mmHg 88%
    15:00 +19°C° 0 mm 5 mps 738 mmHg 88%
    16:00 +19°C° 0 mm 5 mps 738 mmHg 88%
    17:00 +19°C° 0 mm 5 mps 738 mmHg 88%
    18:00 +19°C° 0 mm 5 mps 739 mmHg 89%
    19:00 +19°C° 0 mm 5 mps 739 mmHg 90%
    20:00 +19°C° 0 mm 4 mps 739 mmHg 91%
    21:00 +18°C° 0.2 mm 4 mps 739 mmHg 93%
    22:00 +18°C° 0.2 mm 4 mps 739 mmHg 94%
    23:00 +18°C° 0.2 mm 4 mps 739 mmHg 95%

    Day after tomorrow, 24 July, Tuesday

    Time Temperature Precipitation Wind Pressure Humidity
    00:00 +18°C° 0.1 mm 4 mps 739 mmHg 96%
    01:00 +18°C° 0.1 mm 4 mps 739 mmHg 96%
    02:00 +18°C° 0.1 mm 4 mps 739 mmHg 96%
    03:00 +19°C° 0.3 mm 4 mps 739 mmHg 97%
    04:00 +19°C° 0.3 mm 4 mps 739 mmHg 97%
    05:00 +19°C° 0.3 mm 4 mps 739 mmHg 97%
    06:00 +20°C° 0.5 mm 4 mps 739 mmHg 95%
    07:00 +20°C° 0.5 mm 4 mps 740 mmHg 94%
    08:00 +21°C° 0.5 mm 4 mps 740 mmHg 93%
    09:00 +22°C° 0.2 mm 4 mps 740 mmHg 89%
    10:00 +23°C° 0.2 mm 4 mps 740 mmHg 85%
    11:00 +25°C° 0.2 mm 4 mps 740 mmHg 81%
    12:00 +26°C° 0.4 mm 4 mps 740 mmHg 79%
    13:00 +27°C° 0.4 mm 4 mps 740 mmHg 77%
    14:00 +27°C° 0.4 mm 4 mps 740 mmHg 74%
    15:00 +27°C° 0.6 mm 4 mps 741 mmHg 78%
    16:00 +26°C° 0.6 mm 4 mps 741 mmHg 82%
    17:00 +25°C° 0.6 mm 4 mps 741 mmHg 85%
    18:00 +23°C° 0.7 mm 4 mps 741 mmHg 87%
    19:00 +22°C° 0.7 mm 4 mps 742 mmHg 89%
    20:00 +21°C° 0.7 mm 4 mps 742 mmHg 91%
    21:00 +21°C° 0.6 mm 4 mps 742 mmHg 93%
    22:00 +20°C° 0.6 mm 3 mps 742 mmHg 94%
    23:00 +20°C° 0.6 mm 3 mps 742 mmHg 96%

    25 July, Wednesday

    Time Temperature Precipitation Wind Pressure Humidity
    00:00 +19°C° 0.1 mm 3 mps 742 mmHg 96%
    01:00 +19°C° 0.1 mm 3 mps 742 mmHg 96%
    02:00 +19°C° 0.1 mm 3 mps 742 mmHg 96%
    03:00 +19°C° 0.1 mm 3 mps 743 mmHg 95%
    04:00 +18°C° 0.1 mm 3 mps 743 mmHg 93%
    05:00 +18°C° 0.1 mm 3 mps 743 mmHg 92%
    06:00 +19°C° 0.1 mm 4 mps 743 mmHg 90%
    07:00 +19°C° 0.1 mm 5 mps 743 mmHg 87%
    08:00 +19°C° 0.1 mm 5 mps 743 mmHg 84%
    09:00 +20°C° 0 mm 6 mps 743 mmHg 79%
    10:00 +22°C° 0 mm 7 mps 743 mmHg 74%
    11:00 +23°C° 0 mm 7 mps 743 mmHg 69%
    12:00 +24°C° 0 mm 7 mps 743 mmHg 68%
    13:00 +26°C° 0 mm 7 mps 743 mmHg 67%
    14:00 +26°C° 0 mm 7 mps 743 mmHg 67%
    15:00 +26°C° 0.1 mm 7 mps 743 mmHg 70%
    16:00 +26°C° 0.1 mm 6 mps 743 mmHg 72%
    17:00 +26°C° 0.1 mm 5 mps 743 mmHg 75%
    18:00 +23°C° 0 mm 5 mps 744 mmHg 77%
    19:00 +22°C° 0 mm 4 mps 744 mmHg 79%
    20:00 +21°C° 0 mm 4 mps 744 mmHg 80%
    21:00 +20°C° 0 mm 4 mps 744 mmHg 81%
    22:00 +20°C° 0 mm 4 mps 745 mmHg 82%
    23:00 +19°C° 0 mm 3 mps 745 mmHg 82%

    26 July, Thursday

    Time Temperature Precipitation Wind Pressure Humidity
    00:00 +19°C° 0 mm 3 mps 745 mmHg 81%
    01:00 +18°C° 0 mm 3 mps 745 mmHg 79%
    02:00 +18°C° 0 mm 3 mps 745 mmHg 78%
    03:00 +18°C° 0 mm 3 mps 745 mmHg 79%
    04:00 +18°C° 0 mm 4 mps 746 mmHg 81%
    05:00 +18°C° 0 mm 4 mps 746 mmHg 83%
    06:00 +19°C° 0 mm 4 mps 746 mmHg 79%
    07:00 +21°C° 0 mm 4 mps 746 mmHg 75%
    08:00 +23°C° 0 mm 5 mps 746 mmHg 71%
    09:00 +25°C° 0 mm 5 mps 746 mmHg 68%
    10:00 +26°C° 0 mm 6 mps 747 mmHg 65%
    11:00 +28°C° 0 mm 6 mps 747 mmHg 63%
    12:00 +28°C° 0 mm 6 mps 747 mmHg 62%
    13:00 +29°C° 0 mm 6 mps 747 mmHg 62%
    14:00 +29°C° 0 mm 6 mps 747 mmHg 61%
    15:00 +29°C° 0.4 mm 5 mps 747 mmHg 66%
    16:00 +28°C° 0.4 mm 4 mps 747 mmHg 70%
    17:00 +28°C° 0.4 mm 4 mps 747 mmHg 75%
    18:00 +26°C° 0.1 mm 4 mps 747 mmHg 79%
    19:00 +23°C° 0.1 mm 4 mps 747 mmHg 82%
    20:00 +22°C° 0.1 mm 4 mps 747 mmHg 86%
    21:00 +21°C° 0.1 mm 4 mps 747 mmHg 88%
    22:00 +21°C° 0.1 mm 4 mps 747 mmHg 90%
    23:00 +20°C° 0.1 mm 4 mps 748 mmHg 91%

    27 July, Friday

    Time Temperature Precipitation Wind Pressure Humidity
    00:00 +20°C° 0.1 mm 4 mps 748 mmHg 91%
    01:00 +20°C° 0.1 mm 4 mps 748 mmHg 92%
    02:00 +19°C° 0.1 mm 4 mps 748 mmHg 92%
    03:00 +19°C° 0.1 mm 4 mps 748 mmHg 91%
    04:00 +19°C° 0.1 mm 4 mps 748 mmHg 91%
    05:00 +19°C° 0.1 mm 4 mps 749 mmHg 90%
    06:00 +21°C° 0 mm 4 mps 749 mmHg 86%
    07:00 +22°C° 0 mm 4 mps 749 mmHg 82%
    08:00 +23°C° 0 mm 4 mps 749 mmHg 79%
    09:00 +26°C° 0 mm 5 mps 749 mmHg 73%
    10:00 +27°C° 0 mm 5 mps 750 mmHg 68%
    11:00 +29°C° 0 mm 5 mps 750 mmHg 63%
    12:00 +29°C° 0 mm 5 mps 750 mmHg 62%
    13:00 +29°C° 0 mm 5 mps 750 mmHg 61%
    14:00 +30°C° 0 mm 5 mps 749 mmHg 60%
    15:00 +29°C° 0.1 mm 4 mps 749 mmHg 63%
    16:00 +29°C° 0.1 mm 4 mps 749 mmHg 67%
    17:00 +28°C° 0.1 mm 3 mps 749 mmHg 71%
    18:00 +27°C° 0 mm 3 mps 749 mmHg 74%
    19:00 +25°C° 0 mm 2 mps 750 mmHg 78%
    20:00 +23°C° 0 mm 2 mps 750 mmHg 81%
    21:00 +23°C° 0 mm 2 mps 750 mmHg 82%
    22:00 +21°C° 0 mm 2 mps 750 mmHg 83%
    23:00 +21°C° 0 mm 3 mps 750 mmHg 84%
    Show more